When you browse on this site, cookies collect data to enhance your experience and personalize the content and advertising you see.
Visit our Privacy Policy to learn more. By continuing to use the site, you agree to this use of cookies and data.
  • In Hungary
  • List of Countries
  • For 7 days
  • Water Temperature
  • Weather Map
  • News
  • Weather Widgets
  • user-avatar
    Login

    Hourly Weather Dubenskoe

    Today, 17 February, Monday

    Time Temperature Precipitation Wind Pressure Humidity
    00:00 -4°C° 0 mm 5 mps 756 mmHg 95%
    01:00 -4°C° 0.1 mm 6 mps 756 mmHg 95%
    02:00 -4°C° 0.1 mm 6 mps 755 mmHg 94%
    03:00 -4°C° 0.1 mm 6 mps 755 mmHg 94%
    04:00 -4°C° 0 mm 6 mps 755 mmHg 94%
    05:00 -4°C° 0 mm 7 mps 754 mmHg 94%
    06:00 -4°C° 0 mm 7 mps 754 mmHg 94%
    07:00 -6°C° 0 mm 7 mps 754 mmHg 92%
    08:00 -7°C° 0 mm 7 mps 754 mmHg 90%
    09:00 -7°C° 0 mm 7 mps 754 mmHg 87%
    10:00 -7°C° 0 mm 8 mps 753 mmHg 85%
    11:00 -6°C° 0 mm 9 mps 753 mmHg 82%
    12:00 -5°C° 0 mm 9 mps 752 mmHg 80%
    13:00 -4°C° 0 mm 10 mps 752 mmHg 79%
    14:00 -4°C° 0 mm 10 mps 751 mmHg 78%
    15:00 -3°C° 0 mm 10 mps 751 mmHg 78%
    16:00 -4°C° 0 mm 10 mps 751 mmHg 78%
    17:00 -4°C° 0 mm 10 mps 750 mmHg 79%
    18:00 -4°C° 0 mm 10 mps 750 mmHg 80%
    19:00 -4°C° 0 mm 10 mps 750 mmHg 79%
    20:00 -4°C° 0 mm 11 mps 750 mmHg 78%
    21:00 -4°C° 0 mm 11 mps 749 mmHg 77%
    22:00 -4°C° 0 mm 11 mps 749 mmHg 77%
    23:00 -4°C° 0 mm 10 mps 749 mmHg 78%

    Tomorrow, 18 February, Tuesday

    Time Temperature Precipitation Wind Pressure Humidity
    00:00 -4°C° 0 mm 10 mps 749 mmHg 78%
    01:00 -4°C° 0 mm 10 mps 749 mmHg 79%
    02:00 -4°C° 0 mm 9 mps 749 mmHg 81%
    03:00 -5°C° 0 mm 9 mps 749 mmHg 82%
    04:00 -5°C° 0.2 mm 9 mps 749 mmHg 84%
    05:00 -5°C° 0.2 mm 8 mps 749 mmHg 87%
    06:00 -5°C° 0.2 mm 8 mps 748 mmHg 90%
    07:00 -5°C° 0.2 mm 8 mps 748 mmHg 91%
    08:00 -4°C° 0.2 mm 7 mps 749 mmHg 92%
    09:00 -4°C° 0.2 mm 7 mps 749 mmHg 93%
    10:00 -4°C° 0.8 mm 7 mps 748 mmHg 93%
    11:00 -4°C° 0.8 mm 7 mps 748 mmHg 94%
    12:00 -3°C° 0.8 mm 7 mps 748 mmHg 94%
    13:00 -3°C° 0.4 mm 7 mps 748 mmHg 93%
    14:00 -4°C° 0.4 mm 8 mps 747 mmHg 93%
    15:00 -4°C° 0.4 mm 8 mps 747 mmHg 93%
    16:00 -3°C° 0.1 mm 7 mps 747 mmHg 92%
    17:00 -3°C° 0.1 mm 7 mps 747 mmHg 91%
    18:00 -3°C° 0.1 mm 7 mps 746 mmHg 91%
    19:00 -3°C° 0 mm 7 mps 746 mmHg 91%
    20:00 -3°C° 0 mm 6 mps 746 mmHg 92%
    21:00 -3°C° 0 mm 6 mps 746 mmHg 92%
    22:00 -3°C° 0.1 mm 7 mps 745 mmHg 93%
    23:00 -3°C° 0.1 mm 7 mps 745 mmHg 93%

    Day after tomorrow, 19 February, Wednesday

    Time Temperature Precipitation Wind Pressure Humidity
    00:00 -3°C° 0.1 mm 7 mps 744 mmHg 93%
    01:00 -3°C° 0 mm 7 mps 744 mmHg 93%
    02:00 -3°C° 0 mm 6 mps 743 mmHg 93%
    03:00 -3°C° 0 mm 6 mps 743 mmHg 93%
    04:00 -3°C° 0 mm 6 mps 743 mmHg 93%
    05:00 -3°C° 0 mm 6 mps 743 mmHg 94%
    06:00 -2°C° 0 mm 6 mps 742 mmHg 94%
    07:00 -1°C° 0 mm 5 mps 743 mmHg 96%
    08:00 -1°C° 0 mm 5 mps 743 mmHg 97%
    09:00 -1°C° 0 mm 5 mps 743 mmHg 98%
    10:00 -1°C° 0 mm 5 mps 743 mmHg 99%
    11:00 -1°C° 0 mm 5 mps 743 mmHg 99%
    12:00 -1°C° 0 mm 4 mps 743 mmHg 99%
    13:00 -1°C° 0 mm 4 mps 743 mmHg 99%
    14:00 -1°C° 0 mm 4 mps 744 mmHg 99%
    15:00 0°C° 0 mm 3 mps 744 mmHg 99%
    16:00 0°C° 0 mm 3 mps 744 mmHg 97%
    17:00 0°C° 0 mm 3 mps 744 mmHg 95%
    18:00 -1°C° 0 mm 3 mps 744 mmHg 93%
    19:00 -1°C° 0 mm 3 mps 745 mmHg 94%
    20:00 -1°C° 0 mm 3 mps 745 mmHg 94%
    21:00 -1°C° 0 mm 2 mps 746 mmHg 94%
    22:00 -1°C° 0 mm 2 mps 746 mmHg 94%
    23:00 -1°C° 0 mm 2 mps 746 mmHg 93%

    20 February, Thursday

    Time Temperature Precipitation Wind Pressure Humidity
    00:00 -1°C° 0 mm 2 mps 746 mmHg 93%
    01:00 -1°C° 0 mm 2 mps 746 mmHg 94%
    02:00 -1°C° 0 mm 2 mps 746 mmHg 95%
    03:00 -1°C° 0 mm 2 mps 746 mmHg 95%
    04:00 -1°C° 0 mm 2 mps 746 mmHg 96%
    05:00 -2°C° 0 mm 2 mps 747 mmHg 96%
    06:00 -2°C° 0 mm 2 mps 747 mmHg 96%
    07:00 -2°C° 0 mm 2 mps 747 mmHg 94%
    08:00 -2°C° 0 mm 2 mps 747 mmHg 93%
    09:00 -2°C° 0 mm 2 mps 747 mmHg 91%
    10:00 -2°C° 0 mm 2 mps 748 mmHg 91%
    11:00 -1°C° 0 mm 2 mps 748 mmHg 91%
    12:00 +1°C° 0 mm 1 mps 748 mmHg 92%
    13:00 +1°C° 0 mm 1 mps 748 mmHg 91%
    14:00 +1°C° 0 mm 1 mps 748 mmHg 91%
    15:00 +1°C° 0 mm 1 mps 748 mmHg 91%
    16:00 0°C° 0 mm 1 mps 748 mmHg 90%
    17:00 -1°C° 0 mm 1 mps 748 mmHg 90%
    18:00 -2°C° 0 mm 1 mps 748 mmHg 89%
    19:00 -3°C° 0 mm 1 mps 748 mmHg 89%
    20:00 -3°C° 0 mm 1 mps 749 mmHg 89%
    21:00 -3°C° 0 mm 1 mps 749 mmHg 88%
    22:00 -3°C° 0 mm 1 mps 749 mmHg 89%
    23:00 -3°C° 0 mm 1 mps 749 mmHg 89%

    21 February, Friday

    Time Temperature Precipitation Wind Pressure Humidity
    00:00 -3°C° 0 mm 1 mps 749 mmHg 90%
    01:00 -3°C° 0 mm 1 mps 749 mmHg 90%
    02:00 -4°C° 0 mm 1 mps 749 mmHg 91%
    03:00 -4°C° 0 mm 1 mps 749 mmHg 92%
    04:00 -4°C° 0 mm 1 mps 749 mmHg 92%
    05:00 -4°C° 0 mm 1 mps 749 mmHg 92%
    06:00 -6°C° 0 mm 1 mps 749 mmHg 92%
    07:00 -6°C° 0 mm 1 mps 749 mmHg 92%
    08:00 -4°C° 0 mm 1 mps 750 mmHg 92%
    09:00 -4°C° 0 mm 1 mps 750 mmHg 93%
    16:00 -2°C° 0 mm 1 mps 750 mmHg 94%
    17:00 -2°C° 0 mm 1 mps 750 mmHg 95%
    18:00 -2°C° 0 mm 1 mps 750 mmHg 95%
    19:00 -2°C° 0 mm 1 mps 750 mmHg 95%
    20:00 -3°C° 0 mm 0 mps 750 mmHg 95%
    21:00 -3°C° 0 mm 0 mps 750 mmHg 96%
    22:00 -3°C° 0 mm 0 mps 750 mmHg 96%
    23:00 -3°C° 0 mm 0 mps 750 mmHg 96%

    22 February, Saturday

    Time Temperature Precipitation Wind Pressure Humidity
    00:00 -3°C° 0 mm 0 mps 750 mmHg 96%
    01:00 -3°C° 0 mm 0 mps 750 mmHg 96%
    02:00 -3°C° 0 mm 0 mps 750 mmHg 96%
    03:00 -3°C° 0 mm 0 mps 750 mmHg 96%
    04:00 -3°C° 0 mm 0 mps 750 mmHg 96%
    05:00 -3°C° 0 mm 0 mps 750 mmHg 96%
    06:00 -3°C° 0 mm 0 mps 750 mmHg 96%
    07:00 -3°C° 0 mm 0 mps 750 mmHg 96%
    08:00 -2°C° 0 mm 1 mps 750 mmHg 95%
    09:00 -2°C° 0 mm 1 mps 750 mmHg 95%
    10:00 -1°C° 0 mm 1 mps 750 mmHg 93%
    11:00 -1°C° 0 mm 1 mps 750 mmHg 92%
    12:00 -1°C° 0 mm 1 mps 749 mmHg 90%
    13:00 -1°C° 0 mm 1 mps 749 mmHg 90%
    14:00 -3°C° 0 mm 2 mps 749 mmHg 90%
    15:00 -2°C° 0 mm 2 mps 748 mmHg 90%
    16:00 -3°C° 0 mm 2 mps 748 mmHg 92%
    17:00 -3°C° 0 mm 2 mps 748 mmHg 93%
    18:00 -4°C° 0 mm 2 mps 747 mmHg 95%
    19:00 -5°C° 0 mm 2 mps 747 mmHg 95%
    20:00 -5°C° 0 mm 2 mps 747 mmHg 94%
    21:00 -6°C° 0 mm 2 mps 747 mmHg 94%
    22:00 -7°C° 0 mm 3 mps 746 mmHg 95%
    23:00 -8°C° 0 mm 3 mps 746 mmHg 95%
    Show more